Location: Düngen
(52.0952°N, 10.0219°E)
Time: 14:51:50
(UTC+00:00)

CZ-4B R/B - Pass Details

Date: 11 March 2026
Orbit: 808 x 879 km, 98.9° (Epoch: 14 April)

Event Time Altitude Azimuth Distance (km) Brightness Sun altitude
Exits shadow 20:05:39 27° 199° (SSW) 1,514 4.4 -25.7°
Maximum altitude 20:08:17 50° 260° (W) 1,037 3.9 -26.0°
Drops below altitude 10° 20:13:30 10° 336° (NNW) 2,434 6.3 -26.7°
Sets 20:15:57 0° 342° (NNW) 3,381 7.1 -27.0°
